カタログに戻る

KUIPER-00094

運用中通信LEO
NORAD 64839·PAYLOAD·🇺🇸 United States

打ち上げ Jul 16, 2025 から Cape Canaveral Space Force Station

Loading…

次のパス (今後24時間)

TLE

最新Source: CelesTrak SupGP

元期: Sep 14, 2026, 23:00 UTC

1 64839C 25151Z   26257.95868056  .00003856  00000+0  50478-3 0  2578
2 64839  51.9020 131.2437 0001171  95.1112  36.4810 14.79921569    15

AllMySatでKUIPER-00094をリアルタイム追跡

Download on the App Store